Weather Service Report


385 
ASUS44 KMEG 281810
RWRTN 
TENNESSEE HOURLY STATE WEATHER ROUNDUP
NATIONAL WEATHER SERVICE MEMPHIS TN
1200 PM CST WED JAN 28 2015

TNZ002-004-019-021-049-052-054-088>092-281900-
WEST TENNESSEE
  
CITY           SKY/WX    TMP DP  RH WIND       PRES   REMARKS
MEMPHIS INTL   FAIR      52  29  41 SE7       30.26F                  
NWS MEMPHIS      N/A     51 N/A N/A MISG        N/A                   
JACKSON        FAIR      47  28  47 MISG      30.27F                  
DYERSBURG      FAIR      45  25  45 SE12      30.28F                  
UNION CITY     SUNNY     43  30  61 SE7       30.26F                  
PARIS          SUNNY     41  27  56 S7        30.28F                  
LEXINGTON      SUNNY     45  27  49 VRB5      30.28F                  
SAVANNAH       SUNNY     46  27  46 S5        30.29F                  
$$

TNZ008-025-027-028-033-062-065-066-281900-
NORTH MIDDLE TENNESSEE
  
CITY           SKY/WX    TMP DP  RH WIND       PRES   REMARKS
NASHVILLE      MOSUNNY   44  23  43 SE7       30.31F                  
CLARKSVILLE    SUNNY     43  26  51 SE10      30.29F                  
SMYRNA         SUNNY     44  24  45 S7        30.31F                  
COOKEVILLE     SUNNY     39  19  45 CALM      30.29F                  
CROSSVILLE     SUNNY     38  11  32 VRB7      30.27F WCI  33          
$$

TNZ061-075-076-078-094-096-097-281900-
SOUTH MIDDLE TENNESSEE
  
CITY           SKY/WX    TMP DP  RH WIND       PRES   REMARKS
FAYETTEVILLE   SUNNY     43  25  49 MISG      30.28F                  
TULLAHOMA      SUNNY     43  21  42 CALM      30.28F                  
WINCHESTER     SUNNY     46  25  42 VRB5      30.28F                  
MCMINNVILLE    SUNNY     43  19  39 VRB5      30.28F                  
COLUMBIA       SUNNY     45  28  53 E6        30.27F                  
SHELBYVILLE      N/A    N/A N/A N/A VRB7      30.29F                  
$$

TNZ017-018-042-046-047-281900-
NORTHEAST TENNESSEE
  
CITY           SKY/WX    TMP DP  RH WIND       PRES   REMARKS
TRI CITIES     SUNNY     33  18  53 CALM      30.29F                  
ELIZABETHTON   CLEAR     30  14  51 VRB3      30.27F                  
$$

TNZ012-013-036-069-073-074-281900-
CENTRAL EAST TENNESSEE
  
CITY           SKY/WX    TMP DP  RH WIND       PRES   REMARKS
KNOXVILLE      MOSUNNY   38  14  37 VRB6      30.31F WCI  33          
OAK RIDGE      SUNNY     39  10  30 E3        30.33F                  
GATLINBURG     CLEAR     36  18  48 NE5       30.30F WCI  32          
MORRISTOWN     CLEAR     36  16  44 CALM      30.30F                  
$$

TNZ083-085-099-281900-
SOUTHEAST TENNESSEE
  
CITY           SKY/WX    TMP DP  RH WIND       PRES   REMARKS
CHATTANOOGA    MOSUNNY   44  17  33 N6        30.32F                  
$$

SKY/WX REPORTED AS FAIR MEANS FEW OR NO CLOUDS BELOW
12 THOUSAND FEET.



386 
ASUS44 KMEG 281810
RWRMEG
MEMPHIS CWA HOURLY WEATHER ROUNDUP
NATIONAL WEATHER SERVICE MEMPHIS TN
1200 PM CST WED JAN 28 2015

...WEST TENNESSEE...
  
CITY           SKY/WX    TMP DP  RH WIND       PRES   REMARKS
MEMPHIS INTL   FAIR      52  29  41 SE7       30.26F                  
6HR MIN TEMP:  35; 6HR MAX TEMP:  52;                                

NWS MEMPHIS      N/A     51 N/A N/A MISG        N/A                   
JACKSON        FAIR      47  28  47 MISG      30.27F                  
6HR MIN TEMP:  29; 6HR MAX TEMP:  47;                                

LEXINGTON      SUNNY     45  27  49 VRB5      30.28F                  
SAVANNAH       SUNNY     46  27  46 S5        30.29F                  
DYERSBURG      FAIR      45  25  45 SE12      30.28F                  
6HR MIN TEMP:  27; 6HR MAX TEMP:  45;                                

UNION CITY     SUNNY     43  30  61 SE7       30.26F                  
PARIS          SUNNY     41  27  56 S7        30.28F                  


...EASTERN ARKANSAS...
  
CITY           SKY/WX    TMP DP  RH WIND       PRES   REMARKS
JONESBORO      FAIR      46  32  58 S9        30.27F                  
6HR MIN TEMP:  30; 6HR MAX TEMP:  46;                                

WEST MEMPHIS   FAIR      51  33  50 S13       30.26F                  
6HR MIN TEMP:  33; 6HR MAX TEMP:  51;                                

BATESVILLE     FAIR      54  34  47 SE8       30.22F                  
6HR MIN TEMP:  32; 6HR MAX TEMP:  54;                                

NEWPORT        FAIR      51  34  52 SE8       30.26F                  
6HR MIN TEMP:  31; 6HR MAX TEMP:  51; 6HR PCP: TRACE;                

WALNUT RIDGE   FAIR      46  30  53 S9        30.24F                  
6HR MIN TEMP:  30; 6HR MAX TEMP:  46;                                

BLYTHEVILLE    FAIR      46  30  53 S9        30.27F                  
6HR MIN TEMP:  30; 6HR MAX TEMP:  46;                                

SEARCY         FAIR      53  36  52 SE8       30.24F                  
6HR MIN TEMP:  34; 6HR MAX TEMP:  53;                                

STUTTGART      FAIR      54  36  50 SE13      30.24F                  
6HR MIN TEMP:  37; 6HR MAX TEMP:  54;                                

PINE BLUFF     FAIR      55  38  52 SE12      30.23F                  
6HR MIN TEMP:  35; 6HR MAX TEMP:  56;                                

MONTICELLO     FAIR      59  34  39 SE13      30.24F                  
6HR MIN TEMP:  37; 6HR MAX TEMP:  59; 6HR PCP: TRACE;                



...NORTH MISSISSIPPI...
  
CITY           SKY/WX    TMP DP  RH WIND       PRES   REMARKS
TUPELO         FAIR      48  28  46 SE7       30.29F                  
6HR MIN TEMP:  28; 6HR MAX TEMP:  48;                                

OXFORD         FAIR      50  28  43 S8        30.28F                  
OLIVE BRANCH   MOSUNNY   48  32  53 SE7       30.27F                  
TUNICA         FAIR      52  32  46 S7        30.28F                  
CLARKSDALE     FAIR      52  36  54 SE7       30.28F                  
CORINTH        FAIR      48  30  49 E6        30.28F                  
GRENADA        FAIR      52  32  46 E9        30.29F                  
GREENWOOD      FAIR      57  34  41 VRB3      30.27F                  
6HR MIN TEMP:  38; 6HR MAX TEMP:  57;                                

COLUMBUS       FAIR      48  29  47 VRB2      30.30F                  
6HR MIN TEMP:  27; 6HR MAX TEMP:  49;                                

STARKVILLE     FAIR      50  32  50 E3        30.30F                  
GOLDEN TRIANGL SUNNY     48  30  49 S5        30.30F                  


...SOUTHEAST MISSOURI...
  
CITY           SKY/WX    TMP DP  RH WIND       PRES   REMARKS
WEST PLAINS    FAIR      46  31  55 S14       30.17F                  
6HR MIN TEMP:  31; 6HR MAX TEMP:  46;                                

POPLAR BLUFF   FAIR      42  32  67 SE9       30.25F                  
6HR MIN TEMP:  29; 6HR MAX TEMP:  42;                                

CAPE GIRARDEAU FAIR      42  32  67 SE12G18   30.27F                  
6HR MIN TEMP:  26; 6HR MAX TEMP:  42;                                



...NORTHWEST ALABAMA...
  
CITY           SKY/WX    TMP DP  RH WIND       PRES   REMARKS
MUSCLE SHOALS  FAIR      45  29  53 E8        30.31F                  
6HR MIN TEMP:  29; 6HR MAX TEMP:  45;                                



...MIDDLE TENNESSEE...
  
CITY           SKY/WX    TMP DP  RH WIND       PRES   REMARKS
NASHVILLE      MOSUNNY   44  23  43 SE7       30.31F                  
6HR MIN TEMP:  30; 6HR MAX TEMP:  44;                                

CLARKSVILLE    SUNNY     43  26  51 SE10      30.29F                  
6HR MIN TEMP:  32; 6HR MAX TEMP:  43;                                

COLUMBIA       SUNNY     45  28  53 E6        30.27F                  


...WESTERN KENTUCKY...
  
CITY           SKY/WX    TMP DP  RH WIND       PRES   REMARKS
PADUCAH        FAIR      42  30  62 S8        30.27F                  
6HR MIN TEMP:  25; 6HR MAX TEMP:  42;                                

FORT CAMPBELL  SUNNY     42  24  49 SE9       30.28F                  
6HR MIN TEMP:  30; 6HR MAX TEMP:  42;                                



...CENTRAL ARKANSAS...
  
CITY           SKY/WX    TMP DP  RH WIND       PRES   REMARKS
LITTLE ROCK    FAIR      57  34  41 SE9       30.23F                  
6HR MIN TEMP:  35; 6HR MAX TEMP:  57;                                



SKY/WX REPORTED AS FAIR MEANS FEW OR NO CLOUDS BELOW
12 THOUSAND FEET.


Return to Home page


Western Regional Climate Center, wrcc@dri.edu